Regional Weather Roundup
Issued by NWS Little Rock, AR

Home | Current Version | Previous Version | Text Only | Print | Product List | Glossary On
Versions: 1 2 3 4 5 6 7 8 9 10 11 12 13 14 15 16 17 18 19 20 21 22 23 24 25 26 27 28 29 30 31 32 33 34 35 36 37 38 39 40 41 42 43 44 45 46 47
000
ASUS44 KLZK 301505
RWRLZK

WEATHER ROUNDUP FOR ARKANSAS
NATIONAL WEATHER SERVICE LITTLE ROCK AR
1000 AM CDT THU JUL 30 2015

NOTE: "FAIR" INDICATES FEW OR NO CLOUDS BELOW 12,000 FEET WITH NO
SIGNIFICANT WEATHER AND/OR OBSTRUCTIONS TO VISIBILITY.

ARZ001-003-010-029-301600-
NORTHWEST ARKANSAS

CITY           SKY/WX    TMP DP  RH WIND       PRES   REMARKS
FAYETTEVILLE   SUNNY     80  72  76 E5        30.18S
FORT SMITH     SUNNY     86  72  62 E12       30.12S HX  92
HARRISON       SUNNY     77  64  64 E9        30.22S
BENTONVILLE    MOSUNNY   82  64  54 E12       30.20S
ROGERS         MOSUNNY   81  66  60 E9G16     30.21R
SILOAM SPGS    SUNNY     82  66  57 E9        30.17R HX  85
HIGHFILL       SUNNY     81  69  67 E8        30.19S
SPRINGDALE     SUNNY     79  66  65 E13       30.21R
$$

ARZ004-005-016-301600-
NORTH CENTRAL ARKANSAS

CITY           SKY/WX    TMP DP  RH WIND       PRES   REMARKS
BATESVILLE     SUNNY     82  63  51 NE7       30.16S
FLIPPIN        SUNNY     81  61  50 E5        30.18S
MTN HOME       SUNNY     79  61  53 E7        30.20R
$$

ARZ040-041-301600-
WEST CENTRAL ARKANSAS

CITY           SKY/WX    TMP DP  RH WIND       PRES   REMARKS
MENA           MOSUNNY   88  77  70 NE7       30.15S HX 100
MOUNT IDA      SUNNY     87  74  64 MISG      30.12R HX  95
$$

ARZ009-017-025-026-028-301600-
NORTHEAST ARKANSAS

CITY           SKY/WX    TMP DP  RH WIND       PRES   REMARKS
JONESBORO      SUNNY     79  64  60 NE14G20   30.14S
NEWPORT        SUNNY     81  66  60 NE14      30.15S
WALNUT RIDGE   SUNNY     81  63  54 N10       30.15S
BLYTHEVILLE    SUNNY     82  67  60 NE14      30.13S
$$

ARZ022-023-033-042-044-301600-
CENTRAL ARKANSAS

CITY           SKY/WX    TMP DP  RH WIND       PRES   REMARKS
LITTLE ROCK    SUNNY     86  69  56 NE12      30.12R HX  90
N LITTLE ROCK  SUNNY     86  70  58 NE10G16   30.12R HX  91
JACKSONVILLE   SUNNY     85  66  52 NE17G23   30.12S HX  87
SEARCY         SUNNY     85  65  51 NE13      30.15R HX  86
HOT SPRINGS    SUNNY     87  72  60 E9        30.12S HX  93
RUSSELLVILLE   MOSUNNY   85  66  53 NE10      30.14R HX  87
CLINTON        LGT RAIN  82  64  54 CALM      30.18S
$$

ARZ036-301600-
EAST ARKANSAS

CITY           SKY/WX    TMP DP  RH WIND       PRES   REMARKS
WEST MEMPHIS   SUNNY     84  65  52 NE14      30.10R HX  86
$$

ARZ050-053-066-070-073-301600-
SOUTHWEST ARKANSAS

CITY           SKY/WX    TMP DP  RH WIND       PRES   REMARKS
ARKADELPHIA    FAIR      90  77  65 NE8       30.10R HX 103
CAMDEN         SUNNY     90  75  62 NE7       30.08R HX 100
TEXARKANA      SUNNY     89  76  65 NE7       30.09R HX 100
EL DORADO      SUNNY     90  77  65 N6        30.07S HX 103
DE QUEEN       SUNNY     89  77  67 E7        30.08S HX 101
$$

ARZ056-057-069-301600-
SOUTHEAST ARKANSAS

CITY           SKY/WX    TMP DP  RH WIND       PRES   REMARKS
PINE BLUFF     SUNNY     85  74  69 NE9       30.10S HX  92
STUTTGART      SUNNY     84  70  61 N15       30.11R HX  88
MONTICELLO     MOSUNNY   88  79  74 NE8       30.07S HX 103

$$




USA.gov is the U.S. government's official web portal to all federal, state and local government web resources and services.